Location: The Saddle
(36.8333°N, 80.3417°W)
Time: 19:19:02
(UTC-05:00)

A-11 Canister half - Pass Details

Date: 17 December 2023
Orbit: 1512 x 1687 km, 47.2° (Epoch: 26 February)

Event Time Altitude Azimuth Distance (km) Brightness Sun altitude
Rises 19:45:02 0° 216° (SW) 4,639 12.1 -30.8°
Reaches altitude 10° 19:48:06 10° 212° (SSW) 3,663 11.4 -31.4°
Enters shadow 19:56:38 56° 146° (SE) 1,778 9.0 -33.1°
Maximum altitude 19:57:01 56° 137° (SE) 1,774 - -33.1°
Drops below altitude 10° 20:06:11 10° 62° (ENE) 3,763 - -35.0°
Sets 20:09:22 0° 59° (ENE) 4,773 - -35.6°
